EW4117 Weather Reports


Display with metric or nautical units.
time (UTC)temp
F
wind
direction
speed
MPH
gust
MPH
rain 1hr
in
rain 24hr
in
rain mn
in
humidity
%
barometer
mb
20260508111554 57 305 2.0 9.0 0.00 0.26 0.00 58 1008.4
20260508110055 56 256 1.0 8.0 0.00 0.31 0.00 57 1008.5
20260508104549 55 82 2.0 7.0 0.00 0.31 0.00 58 1008.5
20260508103053 53 300 0.0 7.0 0.00 0.31 0.00 60 1008.7
20260508101547 54 16 3.0 4.0 0.00 0.31 0.00 64 1008.6
20260508100044 53 66 4.0 7.0 0.00 0.31 0.00 66 1008.6
20260508094549 52 360 2.0 7.0 0.00 0.31 0.00 69 1008.6
20260508093041 52 6 2.0 7.0 0.00 0.31 0.00 68 1008.6
20260508091540 52 315 6.0 10.0 0.00 0.31 0.00 69 1008.6
20260508090038 51 248 0.0 4.0 0.00 0.31 0.00 66 1008.6
20260508084536 52 306 6.0 10.0 0.00 0.31 0.00 69 1008.4
20260508083113 52 56 4.0 9.0 0.00 0.31 0.00 67 1008.1
20260508081530 51 170 4.0 8.0 0.00 0.31 0.00 68 1008.3
20260508080025 48 141 1.0 5.0 0.00 0.31 0.00 79 1008.5
20260508074528 46 320 0.0 5.0 0.00 0.31 0.00 82 1008.9
20260508073025 45 294 1.0 4.0 0.00 0.31 0.00 82 1008.8
20260508071524 44 292 0.0 2.0 0.00 0.31 0.00 83 1008.3
20260508070020 44 46 2.0 5.0 0.00 0.31 0.00 83 1008.1
20260508064538 44 64 2.0 4.0 0.00 0.31 0.00 83 1008.0
20260508063018 44 274 0.0 1.0 0.00 0.31 0.00 83 1008.4
20260508061522 44 269 0.0 1.0 0.00 0.31 0.00 83 1008.3
20260508060017 44 262 0.0 3.0 0.00 0.31 0.00 83 1008.4
20260508054515 44 309 0.0 1.0 0.00 0.31 0.00 83 1007.7
20260508053015 43 326 0.0 2.0 0.00 0.31 0.00 82 1007.5
20260508051513 43 281 0.0 4.0 0.00 0.31 0.00 82 1007.7
20260508050014 44 246 0.0 3.0 0.00 0.31 0.00 82 1007.5
20260508044512 44 276 0.0 2.0 0.00 0.31 0.00 82 1007.1
20260508043012 43 312 0.0 2.0 0.00 0.31 0.00 82 1007.0
20260508041514 43 290 0.0 0.0 0.00 0.31 0.00 80 1006.7
20260508040008 44 38 0.0 4.0 0.00 0.31 0.00 78 1006.9
20260508034510 44 323 1.0 3.0 0.00 0.31 0.00 77 1006.8
20260508033005 44 309 0.0 2.0 0.00 0.31 0.00 76 1006.8
20260508031504 45 325 0.0 4.0 0.00 0.31 0.00 74 1006.7
20260508030005 45 36 5.0 12.0 0.00 0.31 0.00 73 1006.5
20260508024606 47 127 8.0 15.0 0.00 0.31 0.00 67 1006.4
20260508023056 46 170 2.0 8.0 0.00 0.31 0.00 68 1006.6
20260508021556 46 193 1.0 7.0 0.00 0.31 0.00 68 1006.4
20260508020054 45 8 1.0 3.0 0.00 0.31 0.00 70 1006.4
20260508014550 45 163 0.0 2.0 0.00 0.31 0.00 69 1006.9
20260508013049 46 16 0.0 6.0 0.00 0.31 0.00 68 1007.0
20260508011559 46 359 0.0 8.0 0.00 0.31 0.00 70 1007.3
20260508010055 46 177 0.0 8.0 0.00 0.31 0.00 68 1007.9
20260508004554 47 126 4.0 10.0 0.00 0.31 0.00 67 1008.0
20260508003042 47 149 5.0 9.0 0.00 0.31 0.00 67 1008.1
20260508001540 47 148 5.0 7.0 0.00 0.31 0.00 68 1008.1
20260508000032 46 141 3.0 5.0 0.00 0.31 0.00 71 1008.0
20260507234530 46 193 1.0 4.0 0.00 0.31 0.00 73 1008.1
20260507233027 46 174 0.0 2.0 0.00 0.31 0.00 75 1008.2
20260507231525 45 173 0.0 0.0 0.00 0.31 0.00 75 1008.4
20260507230023 46 162 0.0 0.0 0.00 0.31 0.00 75 1008.5
20260507224519 46 163 0.0 2.0 0.00 0.31 0.00 75 1008.8
20260507223018 46 216 0.0 0.0 0.00 0.31 0.00 75 1009.0
20260507221516 47 214 0.0 1.0 0.00 0.31 0.00 75 1009.3
20260507220014 47 250 0.0 4.0 0.00 0.31 0.31 75 1009.2
20260507214513 47 234 2.0 4.0 0.00 0.31 0.31 74 1009.2
20260507213010 48 260 0.0 3.0 0.00 0.31 0.31 74 1009.0
20260507211509 49 23 0.0 0.0 0.00 0.31 0.31 72 1008.7
20260507210008 49 317 0.0 0.0 0.00 0.31 0.31 70 1008.5
20260507204507 50 234 0.0 5.0 0.00 0.31 0.31 70 1008.6
20260507203003 49 263 0.0 0.0 0.00 0.31 0.31 71 1008.3
20260507201502 49 202 0.0 0.0 0.00 0.31 0.31 70 1007.9
20260507200100 49 214 0.0 0.0 0.00 0.31 0.31 69 1007.7
20260507194557 49 288 0.0 0.0 0.00 0.31 0.31 68 1007.4
20260507193108 50 288 0.0 0.0 0.00 0.31 0.31 66 1007.2
20260507191559 50 291 0.0 0.0 0.00 0.31 0.31 67 1007.0
20260507184555 51 358 0.0 0.0 0.00 0.31 0.31 66 1006.7
20260507183059 51 15 2.0 8.0 0.00 0.31 0.31 65 1006.4
20260507181553 52 354 2.0 7.0 0.00 0.31 0.31 62 1006.2
20260507180054 53 48 2.0 10.0 0.00 0.31 0.31 60 1005.9
20260507174553 54 47 5.0 8.0 0.00 0.31 0.31 59 1005.8
20260507173055 53 360 3.0 7.0 0.00 0.31 0.31 58 1005.9
20260507171556 55 253 0.0 6.0 0.00 0.31 0.31 59 1005.6
20260507170051 54 52 4.0 9.0 0.00 0.31 0.31 58 1005.4
20260507164549 53 60 6.0 11.0 0.00 0.31 0.31 59 1005.6
20260507163048 53 28 4.0 9.0 0.00 0.31 0.31 60 1005.6
20260507161548 53 344 7.0 15.0 0.00 0.31 0.31 60 1005.3
20260507160057 54 342 9.0 14.0 0.00 0.31 0.31 58 1005.4
20260507154546 55 342 3.0 10.0 0.00 0.31 0.31 57 1005.3
20260507153051 54 352 3.0 7.0 0.00 0.31 0.31 58 1005.4
20260507151545 54 6 6.0 11.0 0.00 0.31 0.31 55 1005.3
20260507150044 55 333 2.0 5.0 0.00 0.31 0.31 56 1005.2
20260507144547 54 37 2.0 6.0 0.00 0.31 0.31 54 1005.4
20260507143042 54 347 4.0 10.0 0.00 0.31 0.31 59 1005.5
20260507141639 53 223 0.0 5.0 0.00 0.31 0.31 58 1005.7
20260507140052 52 340 4.0 9.0 0.00 0.31 0.31 63 1005.7
20260507134534 51 55 4.0 10.0 0.00 0.31 0.31 64 1005.9
20260507133035 50 3 4.0 14.0 0.00 0.31 0.31 68 1005.9
20260507131536 48 3 7.0 12.0 0.02 0.31 0.31 71 1006.1
20260507130038 46 37 5.0 14.0 0.05 0.31 0.31 71 1006.1
20260507124536 46 120 6.0 14.0 0.10 0.31 0.31 73 1006.5
20260507123033 45 108 6.0 10.0 0.20 0.31 0.31 76 1007.0
20260507121538 44 92 4.0 7.0 0.22 0.28 0.28 76 1007.2
20260507120028 45 146 1.0 6.0 0.22 0.26 0.26 75 1007.3
20260507114527 45 212 2.0 6.0 0.20 0.20 0.20 75 1007.2
20260507113033 46 143 4.0 7.0 0.11 0.11 0.11 71 1007.1